Regional Weather Roundup
Issued by NWS

Home | Current Version | Previous Version | Text Only | Print | Product List | Glossary Off
Versions: 1 2 3 4 5 6 7 8 9 10 11 12 13 14 15 16 17 18 19 20 21 22 23 24 25 26 27 28 29 30 31 32 33 34 35 36 37 38 39 40 41 42 43 44 45 46 47 48 49 50

000
ASUS45 KTFX 181110
RWRMT
MONTANA REGIONAL WEATHER ROUNDUP
NATIONAL WEATHER SERVICE GREAT FALLS MT
500 AM MDT WED APR 18 2018

NOTE: "FAIR" INDICATES FEW OR NO CLOUDS BELOW 12000 FEET WITH NO
SIGNIFICANT WEATHER AND/OR OBSTRUCTIONS TO VISIBILITY.

MTZ001>007-043-181200-
WEST OF THE DIVIDE

CITY           SKY/WX    TMP DP  RH WIND       PRES   REMARKS
KALISPELL      FAIR      31  27  85 S5        30.20R
MISSOULA       FAIR      31  24  75 CALM      30.24R
BUTTE          FAIR      23  18  81 CALM      30.21R
MULLAN PASS    MOCLDY    22  21  96 S5        30.13R
ANACONDA         N/A     25  16  68 W3        30.21R
DEER LODGE       N/A     27  19  74 CALM      30.23R
HAMILTON         N/A     34  19  55 MISG      30.23R
PLAINS           N/A     31  26  81 CALM      30.22R
RONAN            N/A     34  28  80 E6        30.23S WCI  29
THOMPSON FALLS   N/A     29  26  88 CALM      30.27R VSB 0
$$

MTZ008-052>055-181200-
SOUTHWEST MONTANA

CITY           SKY/WX    TMP DP  RH WIND       PRES   REMARKS
BOZEMAN        FAIR      29  23  78 S6        30.22R WCI  23
DILLON         FAIR      25  20  81 SW7       30.19R WCI  17
ENNIS          CLOUDY    27  19  74 S7        30.23S WCI  19
W YELLOWSTONE  FAIR      12  10  92 NE6       30.19R WCI   3
THREE FORKS      N/A     26  22  85 CALM      30.18R
TWIN BRIDGES     N/A     29  19  66 NE3       30.17R
$$

MTZ009-010-012-014-046-048-049-054-181200-
EAST SLOPES AND CENTRAL MONTANA

CITY           SKY/WX    TMP DP  RH WIND       PRES   REMARKS
CUT BANK       FAIR      32  22  66 W18       30.10R WCI  20
GREAT FALLS    FAIR      31  19  61 SW14      30.15R WCI  21
HELENA         FAIR      29  21  72 CALM      30.21R
AUGUSTA        FAIR      31  20  63 W12       30.12R WCI  22
BOWMANS CRNR   FAIR      28  18  65 S12       30.14R WCI  18
CHOTEAU          N/A     34  18  51 SW9G20    30.13S WCI  26
FAIRFIELD      FAIR      30  20  64 SW12      30.12R WCI  21
POWER          FAIR      29  20  70 SW9       30.13R WCI  20
RAYNESFORD     FAIR      33  17  51 S9        30.15R WCI  25
ULM            FAIR      30  19  64 S8        30.17R WCI  22
$$

MTZ011-013-016-021-045-047-050-051-181200-
NORTH CENTRAL MONTANA

CITY           SKY/WX    TMP DP  RH WIND       PRES   REMARKS
HAVRE          FAIR      35  28  75 SW15      30.13R WCI  25
LEWISTOWN      CLOUDY    30  22  72 W12       30.15R WCI  20
N BAR RANCH    FAIR      32  18  55 W13       30.14R WCI  22
CHINOOK          N/A     37  28  70 SW15      30.12R WCI  28
GEYSER         FAIR      32  18  56 W17       30.12R WCI  21
GRASS RANGE    FAIR      32  23  67 W15       30.11R WCI  22
STANFORD       FAIR      32  17  52 W14       30.12R WCI  22
$$

MTZ017>020-022>027-061-062-181200-
NORTHEAST MONTANA

CITY           SKY/WX    TMP DP  RH WIND       PRES   REMARKS
GLASGOW        MOCLDY    33  30  88 NW9       30.05R WCI  25
GLENDIVE       FAIR      31  29  92 SW7       30.06R WCI  24
JORDAN           N/A     33  28  81 W7        30.08R WCI  27
MALTA          CLOUDY    37  32  81 W12       30.07R WCI  30
SIDNEY         FOG       29  29 100 CALM      30.06S VSB 1/4
WOLF POINT     FAIR      23  20  88 W3        30.06R
PLENTYWOOD       N/A     32  32 100 CALM      30.05R
POPLAR           N/A     28  27  93 CALM      30.06R
SCOBEY           N/A     22  18  85 CALM      30.02  VSB 0
$$

MTZ028>42-056>058-181200-
SOUTHCENTRAL AND SOUTHEAST MONTANA

CITY           SKY/WX    TMP DP  RH WIND       PRES   REMARKS
BAKER          FAIR      30  29  96 CALM      30.07R
BILLINGS       FAIR      37  21  52 W16       30.16R WCI  28
LIVINGSTON     CLOUDY    33  22  63 W12       30.19R WCI  24
MILES CITY     FAIR      32  31  96 W7        30.09R WCI  26
BIG TIMBER     CLEAR     32  19  59 W25G35    30.17R WCI  19
EKALAKA          N/A     33  28  82 W6        30.03  WCI  27
FORSYTH          N/A     37  30  75 W8        30.13R WCI  31
HARLOWTON      FAIR      31  17  57 W22       30.14R WCI  18
LAUREL           N/A     37  19  48 W10       30.18R WCI  30
$$

REGIONAL REPORTS...DAKOTAS

CITY           SKY/WX    TMP DP  RH WIND       PRES   REMARKS
WILLISTON      FAIR      30  28  92 CALM      30.06R FOG
MINOT          MOCLDY    32  27  81 CALM      30.08R
DICKINSON      CLOUDY    32  31  96 NW5       30.04R
BEACH          FAIR      30  30 100 SW6       30.08R WCI  24
CROSBY         CLOUDY    32  34 100 CALM      30.07R FOG
TIOGA          CLOUDY    32  32 100 S6        30.07R FOG     WCI  26
WATFORD CITY   FOG       32  32 100 CALM      30.06R VSB 1
BISMARCK       CLOUDY    34  28  79 NW3       30.09R
GRAND FORKS    FAIR      29  27  92 NW3       30.10R
FARGO          FAIR      33  29  85 N7        30.04R WCI  27
BUFFALO SD       N/A     34  28  79 NW12      29.99R WCI  25
RAPID CITY     CLOUDY    37  31  78 N14       30.04R WCI  28
$$

REGIONAL REPORTS...WYOMING/IDAHO/WASHINGTON

CITY           SKY/WX    TMP DP  RH WIND       PRES   REMARKS
GILLETTE       FAIR      32  24  72 W16       30.11R WCI  21
SHERIDAN       FAIR      30  22  72 W8        30.16R WCI  22
BUFFALO WY     FAIR      35  18  49 NW9       30.15R WCI  28
CODY           FAIR      35  15  44 W10       30.18R WCI  27
YELLOWSTONE LA   N/A      9   5  84 CALM      30.21R
IDAHO FALLS    FAIR      26  19  74 SW6       30.24R WCI  19
SALMON         FAIR      29  24  82 CALM      30.24R
BOISE          FAIR      37  23  56 SE9       30.19S WCI  30
SPOKANE        FAIR      33  29  85 S6        30.20R WCI  28
$$

REGIONAL REPORTS...ALBERTA

CITY           SKY/WX    TMP DP  RH WIND       PRES   REMARKS
CALGARY        PTCLDY    30  21  69 SW6       30.03R WCI  24
EDMONTON       PTCLDY    30  19  64 SW7       29.98R WCI  23
FORT MCMURRAY  CLOUDY    32  28  86 SW10      29.85R WCI  24
HIGH LEVEL     CLOUDY    23  21  93 CALM      29.85R
LETHBRIDGE     CLEAR     34  25  69 W8G17     30.08R WCI  27
LLOYDMINSTER   FLURRIES  30  27  86 W17G23    30.00R WCI  18
MEDICINE HAT   CLOUDY    30  28  93 S3        30.11R
PEACE RIVER    PTCLDY    23  19  86 VRB2      29.92R
PINCHER CREEK  CLEAR     34  25  69 SW17G24   30.08S WCI  23
$$

REGIONAL REPORTS...SASKATCHEWAN

CITY           SKY/WX    TMP DP  RH WIND       PRES   REMARKS
CORONACH         N/A     19  18  93 N1          N/A
CYPRESS HILLS    N/A     28  27  93 N5          N/A
ESTEVAN        FLURRIES  32  32 100 SW2       30.07R
MOOSE JAW        N/A     23  21  93 CALM        N/A
PRINCE ALBERT  CLOUDY    34  32  93 SW7       30.07R WCI  28
REGINA         CLOUDY    32  32 100 SE3       30.06R
ROCKGLEN         N/A     32  28  86 N12         N/A  WCI  23
SASKATOON      FOG       23  21  93 W6        30.09R VSB 3/8 WCI  16
SWIFT CURRENT  CLEAR     30  30 100 NW6       30.06R FOG     WCI  24
VAL MARIE        N/A     30  28  93 NW8         N/A  WCI  23
$$



USA.gov is the U.S. government's official web portal to all federal, state and local government web resources and services.